Flag for U.S.A. Weather past 2 weeks in Newport News, Virginia, U.S.A.

Now
70 °F

Sunny.


Feels Like: 77 °F
Forecast: 51 / 70 °F
Wind: 9 mph from West

Location: Newport News / Williamsburg International Airport

Current Time: Oct 24, 2014 at 3:02:00 PM

Latest Report: Oct 24, 2014 at 1:54 PM


Visibility: 10 mi

Pressure: 29.93 "Hg

Humidity: 44%

Dew point: 47 °F

Location of Newport NewsLocation

Historic Weather in Newport News — Graph

°F

Newport News temperature yesterday

Maximum temperature yesterday: 70 °F (at 3:54 PM)
Minimum temperature yesterday: 54 °F (at 6:54 AM)
Average temperature yesterday: 60 °F

Past Weeks' High & Low Weather Summary

 TemperatureHumidityPressure
High87 °F (Oct 14, 2:54 PM)89% (Oct 20, 3:54 AM)30.28 "Hg (Oct 20, 3:54 AM)
Low40 °F (Oct 20, 3:54 AM)30% (Oct 19, 2:54 PM)29.69 "Hg (Oct 18, 1:54 PM)
Average67 °F67%29.97 "Hg
* Reported Oct 9 12:54 PM — Oct 24 12:54 PM, Newport News, Weather by CustomWeather, © 2014

Note: Actual official high and low records may vary slightly from our data, if they occured in-between our weather recording intervals... More about our weather records

Advertising

Newport News weather history for previous 24 hours

 ConditionsComfort  
Time TempWeatherWind HumidityBarometerVisibility
12:54 PM
Oct 24
68 °FLight rain. Sunny.8 mph45%29.95 "Hg10 mi
11:54 AM66 °FSunny.9 mph49%29.98 "Hg10 mi
10:54 AM63 °FSunny.14 mph52%29.99 "Hg10 mi
9:54 AM62 °FSunny.10 mph52%29.99 "Hg10 mi
8:54 AM57 °FSunny.12 mph62%29.98 "Hg10 mi
7:54 AM55 °FClear.9 mph64%29.97 "Hg10 mi
6:54 AM55 °FClear.8 mph64%29.96 "Hg10 mi
5:54 AM54 °FClear.7 mph67%29.95 "Hg10 mi
4:54 AM57 °FClear.8 mph62%29.93 "Hg10 mi
3:54 AM57 °FClear.8 mph62%29.93 "Hg10 mi
2:54 AM57 °FClear.9 mph62%29.92 "Hg10 mi
1:54 AM59 °FClear.13 mph60%29.93 "Hg10 mi
12:54 AM59 °FClear.9 mph60%29.93 "Hg10 mi
11:54 PM
Oct 23
61 °FClear.10 mph56%29.92 "Hg10 mi
10:54 PM61 °FClear.9 mph56%29.92 "Hg10 mi
9:54 PM61 °FClear.8 mph58%29.91 "Hg10 mi
8:54 PM60 °FClear.7 mph58%29.90 "Hg10 mi
7:54 PM63 °FOvercast.6 mph54%29.90 "Hg10 mi
6:54 PM63 °FSunny.9 mph54%29.88 "Hg10 mi
5:54 PM65 °FSunny.9 mph52%29.87 "Hg10 mi
4:54 PM67 °FSunny.9 mph49%29.84 "Hg10 mi
3:54 PM70 °FPartly sunny.15 mph44%29.83 "Hg10 mi
Weather by CustomWeather, © 2014

See weather overviewHow to use our weather pages